TimeEDT,TemperatureF,Dew PointF,Humidity,Sea Level PressureIn,VisibilityMPH,Wind Direction,Wind SpeedMPH,Gust SpeedMPH,PrecipitationIn,Events,Conditions,WindDirDegrees,DateUTC
1:56 AM,64.0,59.0,84,29.92,10.0,South,15.0,21.9,N/A,,Scattered Clouds,190,2012-10-15 05:56:00
2:56 AM,64.0,59.0,84,29.90,10.0,South,16.1,23.0,N/A,,Scattered Clouds,190,2012-10-15 06:56:00
3:56 AM,64.9,60.1,84,29.87,10.0,South,18.4,25.3,N/A,,Scattered Clouds,190,2012-10-15 07:56:00
4:56 AM,66.0,60.1,81,29.85,10.0,South,17.3,23.0,N/A,,Overcast,190,2012-10-15 08:56:00
5:56 AM,66.0,60.1,81,29.83,10.0,SSW,15.0,23.0,N/A,,Overcast,200,2012-10-15 09:56:00
6:56 AM,66.0,60.1,81,29.82,10.0,SSW,15.0,24.2,N/A,,Overcast,200,2012-10-15 10:56:00
8:56 AM,66.0,60.1,81,29.81,10.0,South,17.3,24.2,N/A,,Mostly Cloudy,190,2012-10-15 12:56:00
9:56 AM,68.0,59.0,73,29.80,10.0,SSW,15.0,23.0,N/A,,Mostly Cloudy,200,2012-10-15 13:56:00
10:56 AM,68.0,59.0,73,29.79,10.0,SSW,17.3,24.2,N/A,,Overcast,200,2012-10-15 14:56:00
11:56 AM,68.0,59.0,73,29.77,10.0,SSW,15.0,24.2,N/A,,Overcast,210,2012-10-15 15:56:00
12:56 PM,68.0,59.0,73,29.74,10.0,SSW,12.7,20.7,N/A,,Overcast,200,2012-10-15 16:56:00
2:56 PM,70.0,60.1,71,29.70,10.0,SSW,16.1,27.6,N/A,,Mostly Cloudy,200,2012-10-15 18:56:00
3:56 PM,66.9,60.1,79,29.68,10.0,SSW,15.0,21.9,N/A,,Mostly Cloudy,200,2012-10-15 19:56:00
4:56 PM,66.9,60.1,79,29.67,10.0,SSW,13.8,21.9,N/A,,Mostly Cloudy,200,2012-10-15 20:56:00
5:56 PM,66.0,61.0,84,29.66,10.0,SSW,15.0,21.9,N/A,,Overcast,200,2012-10-15 21:56:00
7:53 PM,64.4,62.6,94,29.64,10.0,SSW,11.5,-,N/A,,Overcast,210,2012-10-15 23:53:00
7:56 PM,64.9,62.1,90,29.64,10.0,SSW,10.4,-,N/A,,Overcast,200,2012-10-15 23:56:00
8:30 PM,64.4,60.8,88,29.64,10.0,WSW,8.1,-,0.00,Rain,Light Rain,240,2012-10-16 00:30:00
8:56 PM,64.0,61.0,90,29.63,10.0,SW,11.5,-,0.00,,Overcast,230,2012-10-16 00:56:00
9:54 PM,62.6,57.2,82,29.64,10.0,Calm,Calm,-,0.00,,Overcast,0,2012-10-16 01:54:00
9:56 PM,63.0,57.0,81,29.64,10.0,Calm,Calm,-,0.00,,Overcast,0,2012-10-16 01:56:00
10:56 PM,62.1,57.9,86,29.66,10.0,WSW,5.8,-,0.00,,Light Drizzle,250,2012-10-16 02:56:00
11:56 PM,61.0,57.0,87,29.65,10.0,SW,3.5,-,0.02,Rain,Light Rain,220,2012-10-16 03:56:00